Regional Weather Roundup
Issued by NWS

Home | Current Version | Previous Version | Text Only | Print | Product List | Glossary On
Versions: 1 2 3 4 5 6 7 8 9 10 11 12 13 14 15 16 17 18 19 20 21 22 23 24 25 26 27 28 29 30 31 32 33 34 35 36 37 38 39 40 41 42 43 44 45 46 47 48 49 50
000
ASMX46 KSGX 200311
RWRMX

MEXICAN WEATHER ROUNDUP
NATIONAL WEATHER SERVICE SAN DIEGO CA
700 PM PST SUN FEB 19 2017

BAJA CALIFORNIA

CITY           SKY/WX    TMP DP  RH WIND       PRES   REMARKS
ENSENADA NW      N/A     56  32  40 W3        30.08R
LA PAZ         PTCLDY    63  52  67 SE7       30.06R
MEXICALI       PTCLDY    63  54  72 NW5       29.99R
S.J. DEL CABO  PTCLDY    64  54  68 N6        30.04R
TIJUANA        CLEAR     52  43  71 CALM      30.12R

NORTHWESTERN MEXICO

CITY           SKY/WX    TMP DP  RH WIND       PRES   REMARKS
CHIHUAHUA      PTCLDY    54  25  32 N7        30.03R
CULIACAN       CLEAR     64  55  72 W7        30.02R
GUAYMAS          N/A    N/A N/A N/A MISG        N/A
HERMOSILLO     PTCLDY    61  54  77 SW5       30.06R
JUAREZ         CLEAR     54  32  43 W12       29.93R
LOS MOCHIS     CLEAR     61  54  77 CALM      30.05R

NORTHEASTERN MEXICO

CITY           SKY/WX    TMP DP  RH WIND       PRES   REMARKS
MONCLOVA         N/A    N/A N/A N/A MISG        N/A
MONTERREY      CLOUDY    73  54  49 NW6       29.74R
REYNOSA        MOCLDY    73  68  83 SE8       29.73R
SALTILLO       MOCLDY    64  43  45 SW12      30.01R
TORREON        MOCLDY    72  27  18 SW15      29.96R
VICTORIA       PTCLDY    84  59  42 S16       29.72R

WESTERN MEXICO

CITY           SKY/WX    TMP DP  RH WIND       PRES   REMARKS
AGUASCALIENTES CLOUDY    59  30  33 S7        30.19R
COLIMA         PTCLDY    66  61  82 N12       30.08R
DURANGO        PTCLDY    48  36  61 SW10      30.15R
GUADALAJARA    MOCLDY    63  45  51 W5        30.16R
MAZATLAN       PTCLDY    66  55  68 N5        30.01R
PTO. VALLARTA  MOCLDY    73  68  83 W3        29.99R
TEPIC          MOCLDY    63  61  94 S3        30.07
URUAPAN        CLOUDY    55  54  94 CALM      30.18F
ZACATECAS      CLEAR     52  34  50 SW21      30.18R

CENTRAL MEXICO

CITY           SKY/WX    TMP DP  RH WIND       PRES   REMARKS
CUERNAVACA       N/A    N/A N/A N/A MISG        N/A
LEON           CLOUDY    61  39  44 S5        30.26R
MEXICO CITY    PTCLDY    63  37  39 S9        30.29R
MORELIA        CLOUDY    55  45  67 CALM      30.26R
POZA RICA      CLEAR     77  72  83 S5        29.83R
QUERETARO      MOCLDY    55  45  67 W16       30.30R
S. LUIS POTOSI PTCLDY    64  28  25 SW10      30.13R
TAMPICO        MOCLDY    73  72  94 S12       29.79R
TOLUCA         MOCLDY    54  36  50 W2        30.37R
VERACRUZ       CLEAR     73  70  88 W5        29.84R

SOUTHERN MEXICO

CITY           SKY/WX    TMP DP  RH WIND       PRES   REMARKS
ACAPULCO       PTCLDY    79  72  78 W8        29.96R
B. DE HUATULCO MOCLDY    75  70  83 CALM      29.99R
MINATITLAN       N/A    N/A N/A N/A MISG        N/A
PTO. ESCONDIDO   N/A    N/A N/A N/A MISG        N/A
TAPACHULA      PTCLDY    77  70  78 CALM      29.95R
TUX. GUTIERREZ CLEAR     75  57  53 SW5       29.96R
VILLAHERMOSA   CLEAR     77  73  88 CALM      29.86R
ZIHUATANEJO    LGT RAIN  79  70  73 N6        29.99

YUCATAN PENINSULA

CITY           SKY/WX    TMP DP  RH WIND       PRES   REMARKS
CAMPECHE       CLEAR     82  73  74 CALM      29.84R
CANCUN         CLEAR     79  73  83 SE8       30.00R
CHETUMAL         N/A    N/A N/A N/A MISG        N/A
C. DEL CARMEN  PTCLDY    81  73  78 NE8       29.85R
COZUMEL        PTCLDY    79  73  83 SE10      29.98R
MERIDA         PTCLDY    84  63  48 SE12      29.89R

$$





USA.gov is the U.S. government's official web portal to all federal, state and local government web resources and services.